Regional Weather Roundup
Issued by NWS Memphis, TN

Home | Current Version | Previous Version | Text Only | Print | Product List | Glossary On
Versions: 1 2 3 4 5 6 7 8 9 10 11 12 13 14 15 16 17 18 19 20 21 22 23 24 25 26 27 28 29 30 31 32 33 34 35 36 37 38 39 40 41 42 43 44 45 46 47 48 49 50
000
ASUS44 KMEG 251610
RWRMEG
MEMPHIS CWA HOURLY WEATHER ROUNDUP
NATIONAL WEATHER SERVICE MEMPHIS TN
1100 AM CDT WED APR 25 2018

...WEST TENNESSEE...

CITY           SKY/WX    TMP DP  RH WIND       PRES   REMARKS
MEMPHIS INTL   PTSUNNY   71  59  65 NW8       30.04F
NWS MEMPHIS      N/A     68 N/A N/A MISG        N/A
JACKSON        FAIR      70  56  61 VRB3      30.03R
COVINGTON      SUNNY     70  55  60 VRB6      30.03F
SOMERVILLE     SUNNY     70  57  64 W7        30.03S
BOLIVAR        SUNNY     70  55  60 VRB5G14   30.03R
LEXINGTON      SUNNY     68  54  60 VRB7      30.02S
DYERSBURG      FAIR      67  56  67 CALM      30.03S
UNION CITY     SUNNY     70  55  60 VRB3      30.01S
PARIS          MOSUNNY   66  55  68 N6G12     30.03F
HUNTINGDON     SUNNY     70  55  60 VRB6G12   30.02S


...EASTERN ARKANSAS...

CITY           SKY/WX    TMP DP  RH WIND       PRES   REMARKS
JONESBORO      FAIR      70  49  47 NW7       30.03F
WEST MEMPHIS   FAIR      70  62  76 NW8       30.04S
BATESVILLE     CLOUDY    68  46  45 W7        30.07R
NEWPORT        FAIR      70  54  56 NW8       30.05S
WALNUT RIDGE   FAIR      67  49  52 CALM      30.04S
BLYTHEVILLE    FAIR      71  55  56 VRB3      30.04S
NW BLYTHEVILLE SUNNY     70  52  52 N3        30.03F
SEARCY         FAIR      72  61  68 NW8       30.07R
STUTTGART      FAIR      71  57  61 W6        30.06S
PINE BLUFF     FAIR      73  54  51 S6        30.06S
MONTICELLO     FAIR      73  54  51 SW5       30.07R


...NORTH MISSISSIPPI...

CITY           SKY/WX    TMP DP  RH WIND       PRES   REMARKS
TUPELO         FAIR      69  54  58 NW6       30.03F
OXFORD         FAIR      68  52  56 NW6       30.05F
BATESVILLE       N/A    N/A N/A N/A MISG        N/A
OLIVE BRANCH   PTSUNNY   68  59  73 W8        30.03F
TUNICA           N/A     70  55  60 W7        30.06S
CLARKSDALE     SUNNY     72  57  60 W8        30.06S
CORINTH        FAIR      70  55  60 NW9       30.03S
GREENWOOD      FAIR      70  54  56 NW3       30.05S
COLUMBUS       FAIR      67  58  71 N7        30.03F
GOLDEN TRIANGL FAIR      69  57  65 NW9       30.05S


...SOUTHEAST MISSOURI...

CITY           SKY/WX    TMP DP  RH WIND       PRES   REMARKS
KENNETT        FAIR      70  50  49 CALM      30.02S HAZE
MALDEN         FAIR      70  48  46 NE6       30.03F
WEST PLAINS    CLOUDY    60  45  57 NW6       30.08R
POPLAR BLUFF   FAIR      70  45  40 CALM      30.03R
CAPE GIRARDEAU FAIR      67  51  56 E5        30.02S


...NORTHWEST ALABAMA...

CITY           SKY/WX    TMP DP  RH WIND       PRES   REMARKS
MUSCLE SHOALS  FAIR      68  53  58 N8        30.03F


...MIDDLE TENNESSEE...

CITY           SKY/WX    TMP DP  RH WIND       PRES   REMARKS
NASHVILLE      CLOUDY    62  51  67 N10       30.03R
CLARKSVILLE    PTSUNNY   64  53  67 N8        30.03S
COLUMBIA       PTSUNNY   63  55  77 N6G13     30.01F
LEWISBURG      CLOUDY    63  52  67 N9        30.02S


...WESTERN KENTUCKY...

CITY           SKY/WX    TMP DP  RH WIND       PRES   REMARKS
PADUCAH        FAIR      69  53  56 VRB5      30.02F
FORT CAMPBELL  FAIR      63  54  71 N7        30.02F


...CENTRAL ARKANSAS...

CITY           SKY/WX    TMP DP  RH WIND       PRES   REMARKS
LITTLE ROCK    PTSUNNY   72  57  59 SW6       30.06F


SKY/WX REPORTED AS FAIR MEANS FEW OR NO CLOUDS BELOW
12 THOUSAND FEET.





USA.gov is the U.S. government's official web portal to all federal, state and local government web resources and services.